Regional Weather Roundup
Issued by NWS

Home | Current Version | Previous Version | Graphics & Text | Print | Product List | Glossary On
Versions: 1 2 3 4 5 6 7 8 9 10 11 12 13 14 15 16 17 18 19 20 21 22 23 24 25 26 27 28 29 30 31 32 33 34 35 36 37 38 39 40 41 42 43 44 45 46 47 48 49 50
000
ASUS43 KLMK 221910
RWRKY
KENTUCKY REGIONAL WEATHER ROUNDUP
NATIONAL WEATHER SERVICE LOUISVILLE KY
300 PM EDT FRI AUG 22 2014

NOTE "FAIR" INDICATES FEW OR NO CLOUDS BELOW 12,000 FEET
WITH NO SIGNIFICANT WEATHER AND/OR OBSTRUCTIONS TO VISIBILITY.

KYZ001>023-026-027-061>063-070>075-222000-
WESTERN AND SOUTH CENTRAL KENTUCKY

CITY           SKY/WX    TMP DP  RH WIND       PRES   REMARKS
PADUCAH        MOSUNNY   94  74  52 VRB3      30.01F HX 104
HENDERSON      CLOUDY    91  75  59 SW3       29.99F HX 102
OWENSBORO      CLOUDY    89  76  65 W7        30.01F HX 100
HOPKINSVILLE   CLOUDY    91  74  57 W9        30.03F HX 100
BOWLING GREEN  PTSUNNY   90  73  57 W6        30.03F HX  98
GLASGOW        PTSUNNY   88  73  60 W9        30.04F HX  96
$$

KYZ024-025-028>034-038-045-046-053-222000-
NORTH CENTRAL KENTUCKY

CITY           SKY/WX    TMP DP  RH WIND       PRES   REMARKS
LOUISVILLE/SDF CLOUDY    86  75  69 SW10      29.98F HX  95
LOUISVILLE/LOU PTSUNNY   87  75  67 W9        29.99F HX  96
FORT KNOX      CLOUDY    87  76  71 W8        30.00F HX  97
$$

KYZ035>037-039>044-047>052-055>060-089>105-222000-
NORTHEAST KENTUCKY

CITY           SKY/WX    TMP DP  RH WIND       PRES   REMARKS
LEXINGTON      CLOUDY    87  75  67 W12       30.01F HX  96
COVINGTON      CLOUDY    85  76  74 SW9       29.99F HX  94
FRANKFORT      CLOUDY    87  75  67 SW10      29.99F HX  96
$$

KYZ054-064>069-076>088-106>120-222000-
SOUTHEAST KENTUCKY

CITY           SKY/WX    TMP DP  RH WIND       PRES   REMARKS
JACKSON        PTSUNNY   86  74  67 VRB5      30.04F HX  94
LONDON         MOSUNNY   89  71  55 SW10      30.06F HX  95
SOMERSET       CLOUDY    86  72  62 SW8       30.06F HX  92
MIDDLESBORO    PTSUNNY   88  72  58 W8        30.07S HX  94
MONTICELLO     MOCLDY    88  76  67 W7        30.07F HX  99
$$



USA.gov is the U.S. government's official web portal to all federal, state and local government web resources and services.